Location: Alpha Ridge Park
(39.3209°N, 76.9128°W)
Time: 23:20:49
(UTC-04:00)

S-56A Canister/Altair - Pass Details

Date: 24 May 2019
Orbit: 633 x 2499 km, 38.9° (Epoch: 23 June)

Event Time Altitude Azimuth Distance (km) Brightness Sun altitude
Rises 01:35:31 0° 226° (SW) 3,159 - -29.5°
Reaches altitude 10° 01:37:43 10° 219° (SW) 2,372 - -29.5°
Maximum altitude 01:42:56 43° 148° (SSE) 1,372 - -29.3°
Exits shadow 01:44:40 37° 114° (ESE) 1,623 9.0 -29.2°
Drops below altitude 10° 01:50:25 10° 81° (E) 3,407 11.0 -29.0°
Sets 01:54:11 0° 75° (ENE) 4,708 11.9 -28.8°
